Погода в Дигане

Шри-Ланка     7°17′10″N   80°44′12″E
темп.,
°C
ветер,
м/с
пор.,
м/с
влажн.,
%
обл.,
%
осадки,
мм/ч
давл.,
гПа
погр.,
м
10 мая, пн
пн1023:30+21зюз1191100 0.2 101112
02:30+21юз119192 0.0 100811
05:30+21ююв1191100 0.1 101011
08:30+25в017889 1.2 1011255
11:30+28ссв116699 4.6 10101064
14:30+27ссз117499 5.7 1007765
17:30+24зсз1287100 9.5 100844
20:30+22зюз1191100 2.3 101011
11 мая, вт
вт1123:30+21юз1193100 2.6 101111
02:30+21ю1194100 2.2 100813
05:30+20ююз119483 5.9 100913
08:30+23з018589 1.4 1011136
11:30+26сз227198 4.6 1010595
14:30+28зсз226681 2.4 10081126
17:30+24зсз1289100 8.0 100879
20:30+22ююз019294 5.5 101012
12 мая, ср
ср1223:30+22юз1190100 5.9 101016
02:30+21юз119091 0.0 100815
05:30+21зюз118999 0.0 100913
08:30+24з1176100 0.0 1011285
11:30+28зсз226284 0.6 10091044
14:30+26сз2274100 3.3 1007670
17:30+23зсз1289100 7.7 1007100
20:30+21зюз2195100 1.1 100928
13 мая, чт
чт1323:30+21зюз219589 1.3 100927
02:30+20зюз1193100 0.1 100722
05:30+20юз1191100 0.1 100813
08:30+25з117242 0.0 1009398
11:30+29сз215784 0.1 10081471
14:30+25сз2278100 2.1 1006488
17:30+23з1290100 5.9 100767
20:30+22зюз1194100 2.3 100815
14 мая, пт
пт1423:30+21зюз1195100 2.5 100921
02:30+21зюз1193100 0.1 100717
05:30+20юз1190100 0.3 100814
08:30+24з1175100 0.0 1010235
11:30+29сз1157100 0.1 10081305
14:30+26зсз127396 2.1 1006582
17:30+23з118787 7.1 100743
20:30+21зюз1192100 0.5 100912